This demonstration page uses our WeatherBlox Daily Observations layout. Learn more.

Hourly Observations for November 24, 2015

Temp ( °F °C ) Dew Point ( °F °C ) Humidity (%) Winds ( mph kmh ) Pressure ( in mb ) Visibility ( mi km ) Precip ( " mm )
12:15 am 00:15 Clear 36 2.3 29 -1.7 75 75 SSE 8 13 30.03 1017 10 16.0934 0 0
12:35 am 00:35 Clear 36 2.2 29 -1.6 76 76 SSE 7 11 30.03 1017 10 16.0934 0 0
12:55 am 00:55 Clear 35 1.9 29 -1.7 77 77 SSE 8 13 30.03 1017 10 16.0934 0 0
1:15 am 01:15 Clear 36 2 29 -1.6 77 77 SSE 6 9 30.03 1017 10 16.0934 0 0
1:35 am 01:35 Clear 36 2.4 29 -1.5 76 76 SSE 7 11 29.97 1015 10 16.0934 0 0
1:55 am 01:55 Clear 36 2.2 29 -1.7 76 76 SSE 8 13 29.97 1015 10 16.0934 0 0
2:15 am 02:15 Clear 35 1.9 29 -1.7 77 77 SSE 7 11 29.97 1015 10 16.0934 0 0
2:35 am 02:35 Clear 34 1.1 28 -2.2 79 79 SSE 7 11 30 1016 10 16.0934 0 0
2:55 am 02:55 Clear 36 2.1 28 -2 75 75 SSE 8 13 29.97 1015 10 16.0934 0 0
3:15 am 03:15 Clear 35 1.6 28 -2.3 76 76 SSE 8 13 29.97 1015 10 16.0934 0 0
3:35 am 03:35 Clear 33 0.8 28 -2.5 79 79 SSE 9 15 30 1016 10 16.0934 0 0
3:55 am 03:55 Clear 33 0.6 28 -2.5 80 80 SSE 8 13 30 1016 10 16.0934 0 0
4:15 am 04:15 Clear 33 0.3 28 -2.3 83 83 SSE 9 15 29.97 1015 10 16.0934 0 0
4:35 am 04:35 Clear 33 0.8 28 -2.2 81 81 SSE 10 17 29.97 1015 10 16.0934 0 0
4:55 am 04:55 Clear 33 0.7 28 -2.5 79 79 SSE 10 17 29.97 1015 10 16.0934 0 0
5:15 am 05:15 Clear 33 0.8 28 -2.3 80 80 SSE 10 17 29.97 1015 10 16.0934 0 0
5:35 am 05:35 Clear 33 0.7 28 -2.5 79 79 SSE 8 13 29.97 1015 10 16.0934 0 0
5:55 am 05:55 Clear 32 0.1 28 -2.5 83 83 SSE 8 13 29.97 1015 10 16.0934 0 0
6:15 am 06:15 Clear 32 -0.1 27 -2.7 83 83 SSE 9 15 29.97 1015 10 16.0934 0 0
6:35 am 06:35 Clear 31 -0.5 27 -3 83 83 SSE 9 15 29.97 1015 10 16.0934 0 0
6:55 am 06:55 Clear 32 0 28 -2.5 83 83 SSE 9 15 29.97 1015 10 16.0934 0 0
7:15 am 07:15 Clear 32 -0.1 27 -2.6 83 83 SSE 8 13 29.97 1015 10 16.0934 0 0
7:35 am 07:35 Sunny 32 -0.1 27 -2.8 82 82 SSE 7 11 29.97 1015 10 16.0934 0 0
7:55 am 07:55 Sunny 32 -0.1 28 -2.4 85 85 SSE 8 13 29.97 1015 10 16.0934 0 0
8:15 am 08:15 Sunny 32 0.1 28 -2.1 85 85 SSE 7 11 29.97 1015 10 16.0934 0 0
8:35 am 08:35 Sunny 34 1.1 29 -1.7 82 82 SSE 7 11 29.97 1015 10 16.0934 0 0
8:55 am 08:55 Sunny 36 2.2 29 -1.5 77 77 SSE 8 13 29.94 1014 10 16.0934 0 0
9:15 am 09:15 Sunny 38 3.3 30 -1.2 73 73 S 9 15 29.94 1014 10 16.0934 0 0
9:35 am 09:35 Sunny 40 4.4 30 -1.1 68 68 S 14 22 29.94 1014 10 16.0934 0 0
9:55 am 09:55 Sunny 40 4.6 30 -1.3 66 66 S 12 19 29.91 1013 10 16.0934 0 0
10:15 am 10:15 Sunny 42 5.4 30 -1 64 64 S 12 19 29.91 1013 10 16.0934 0 0
10:35 am 10:35 Sunny 42 5.8 30 -1 62 62 S 12 19 29.88 1012 10 16.0934 0 0
10:55 am 10:55 Sunny 44 6.7 31 -0.6 60 60 S 9 15 29.88 1012 10 16.0934 0 0
11:15 am 11:15 Sunny 46 7.5 31 -0.6 57 57 S 9 15 29.85 1011 10 16.0934 0 0
11:35 am 11:35 Sunny 46 7.9 31 -0.5 56 56 S 9 15 29.85 1011 10 16.0934 0 0
11:55 am 11:55 Sunny 47 8.5 31 -0.5 53 53 S 9 15 29.83 1010 10 16.0934 0 0
12:15 pm 12:15 Sunny 48 8.8 31 -0.5 52 52 SSE 8 13 29.83 1010 10 16.0934 0 0
12:35 pm 12:35 Sunny 49 9.5 32 -0.1 51 51 S 7 11 29.83 1010 10 16.0934 0 0
12:55 pm 12:55 Sunny 49 9.2 31 -0.3 52 52 SSE 8 13 29.8 1009 10 16.0934 0 0
1:15 pm 13:15 Sunny 50 10.1 32 0 50 50 S 8 13 29.8 1009 10 16.0934 0 0
1:35 pm 13:35 Sunny 50 10 32 -0.1 50 50 S 9 15 29.8 1009 10 16.0934 0 0
1:55 pm 13:55 Sunny 50 10.1 32 0 50 50 S 9 15 29.8 1009 10 16.0934 0 0
2:15 pm 14:15 Sunny 50 10 32 0.1 51 51 SSE 9 15 29.8 1009 10 16.0934 0 0
2:35 pm 14:35 Sunny 50 10.1 32 0.2 51 51 SSE 10 17 29.8 1009 10 16.0934 0 0
2:55 pm 14:55 Sunny 52 11 33 0.5 49 49 SSE 12 19 29.77 1008 10 16.0934 0 0
3:15 pm 15:15 Sunny 50 10.1 32 0.2 51 51 SSE 13 20 29.8 1009 10 16.0934 0 0
3:35 pm 15:35 Sunny 50 9.8 33 0.4 52 52 S 13 20 29.8 1009 10 16.0934 0 0
3:55 pm 15:55 Sunny 49 9.2 33 0.4 54 54 S 9 15 29.8 1009 10 16.0934 0 0
4:15 pm 16:15 Sunny 48 9.1 34 0.9 57 57 SSE 7 11 29.8 1009 10 16.0934 0 0
4:35 pm 16:35 Sunny 49 9.6 34 1.1 56 56 SSE 9 15 29.8 1009 10 16.0934 0 0
4:55 pm 16:55 Sunny 50 9.9 33 0.7 53 53 SSE 10 17 29.8 1009 10 16.0934 0 0
5:15 pm 17:15 Clear 47 8.3 33 0.5 58 58 SSE 6 9 29.8 1009 10 16.0934 0 0
5:35 pm 17:35 Clear 44 6.5 32 0 64 64 SSE 3 6 29.83 1010 10 16.0934 0 0
5:55 pm 17:55 Clear 43 6 32 0.1 66 66 SSE 3 6 29.83 1010 10 16.0934 0 0
6:15 pm 18:15 Clear 40 4.3 32 -0.1 73 73 SSE 3 6 29.83 1010 10 16.0934 0 0
6:35 pm 18:35 Clear 36 2 29 -1.5 78 78 SE 3 6 29.85 1011 10 16.0934 0 0
6:55 pm 18:55 Clear 39 3.9 31 -0.4 74 74 SSE 5 7 29.88 1012 10 16.0934 0 0
7:15 pm 19:15 Clear 38 3.1 30 -1.1 74 74 SE 3 6 29.88 1012 10 16.0934 0 0
7:35 pm 19:35 Clear 37 2.6 31 -0.5 80 80 SE 5 7 29.88 1012 10 16.0934 0 0
7:55 pm 19:55 Clear 35 1.7 30 -1.3 81 81 SE 7 11 29.85 1011 10 16.0934 0 0
8:15 pm 20:15 Clear 35 1.8 31 -0.4 86 86 SSE 7 11 29.85 1011 10 16.0934 0 0
8:35 pm 20:35 Clear 35 1.7 30 -0.9 83 83 SSE 6 9 29.85 1011 10 16.0934 0 0
8:55 pm 20:55 Clear 35 1.5 30 -1.1 83 83 SSE 6 9 29.85 1011 10 16.0934 0 0
9:15 pm 21:15 Clear 37 2.5 31 -0.4 81 81 SSE 6 9 29.85 1011 10 16.0934 0 0
9:35 pm 21:35 Clear 36 2.1 31 -0.8 81 81 SSE 3 6 29.85 1011 10 16.0934 0 0
9:55 pm 21:55 Clear 32 0.1 29 -1.6 88 88 Calm 29.88 1012 10 16.0934 0 0
10:15 pm 22:15 Clear 33 0.7 30 -1.2 87 87 S 5 7 29.85 1011 10 16.0934 0 0
10:35 pm 22:35 Clear 35 1.9 31 -0.6 84 84 S 3 6 29.85 1011 10 16.0934 0 0
10:55 pm 22:55 Clear 35 1.5 31 -0.4 87 87 SSE 5 7 29.85 1011 10 16.0934 0 0
11:15 pm 23:15 Clear 33 0.7 31 -0.8 90 90 SSE 6 9 29.85 1011 10 16.0934 0 0
11:35 pm 23:35 Clear 34 1.1 31 -0.7 88 88 S 6 9 29.85 1011 10 16.0934 0 0
11:55 pm 23:55 Clear 35 1.4 31 -0.5 87 87 S 6 9 29.85 1011 10 16.0934 0 0

Powered by AerisWeather